• Join FlightAware (Why Join?)
  • Login
  • US Flag 
08:13AM EDT


 

Airport Tracker/Info


-or-


 

Live Flight TrackerFlight Track Log ✈ EJA834P ✈ 01-Aug-2013 ✈ KMMU - KFOK

Flight Track Log - Related Links

Times and Time Zones

All times are in EDT time to prevent confusion due to time zone crossing. See the EJA834P flight status page for this flight to view local times or setup timezone preferences in your user account.

Time Position Orientation Groundspeed Altitude Reporting Facility
EDT Latitude Longitude Course Direction KTS MPH feet Rate Location/Type
12:15PM 40.7667 -74.4333 131° Southeast 190 219 2,100  Level New York TRACON
12:16PM 40.7333 -74.3833 131° Southeast 232 267 3,400 1,380 Climbing New York TRACON
12:17PM 40.7667 -74.3167 57° Northeast 300 345 4,800 1,260 Climbing New York TRACON
12:18PM 40.8500 -74.2667 24° Northeast 308 354 6,000 600 Climbing New York TRACON
12:19PM 40.9333 -74.2333 17° North 310 357 6,000  Level New York TRACON
12:20PM 41.0167 -74.2000 17° North 309 356 6,000  Level New York TRACON
12:21PM 41.0833 -74.1667 21° North 308 354 6,000  Level New York TRACON
12:22PM 41.1667 -74.1000 31° Northeast 304 350 6,100 420 Climbing New York TRACON
12:23PM 41.1833 -73.9833 79° East 304 350 7,000 420 Climbing New York TRACON
12:24PM 41.2167 -73.9000 62° Northeast 314 361 7,000  Level New York TRACON
12:25PM 41.2333 -73.7833 79° East 308 354 7,000  Level New York TRACON
12:26PM 41.2667 -73.6667 69° East 300 345 7,000  Level New York TRACON
12:27PM 41.2833 -73.5667 77° East 299 344 7,000  Level New York TRACON
12:28PM 41.2667 -73.4500 101° East 286 329 7,000  Level New York TRACON
12:29PM 41.2500 -73.3500 102° East 290 334 7,000  Level New York TRACON
12:30PM 41.2333 -73.2500 102° East 293 337 7,000  Level New York TRACON
12:31PM 41.2333 -73.1333 90° East 294 338 7,000 -600 Level New York TRACON
12:32PM 41.2167 -73.0500 105° East 279 321 5,900 -1,380 Descending New York TRACON
12:33PM 41.2000 -72.9500 102° East 269 310 4,400 -1,440 Descending New York TRACON
12:34PM 41.1833 -72.8500 102° East 256 295 3,000 -720 Descending New York TRACON
12:35PM 41.1667 -72.7667 105° East 253 291 3,000  Level New York TRACON
12:36PM 41.1167 -72.7000 135° Southeast 251 289 3,000  Level New York TRACON
12:37PM 41.0833 -72.6167 118° Southeast 256 295 3,000  Level New York TRACON
12:38PM 41.0500 -72.5500 124° Southeast 257 296 3,000 -240 Level New York TRACON
12:39PM 40.9833 -72.5333 169° South 244 281 2,600 -600 Descending New York TRACON
12:40PM 40.9333 -72.5667 207° Southwest 197 227 1,900 -780 Descending New York TRACON
12:41PM 40.9000 -72.5667 180° South 150 173 1,100 -840 Descending New York TRACON
12:42PM 40.8667 -72.6000 217° Southwest 115 132 300 -840 Descending New York TRACON
12:44PM 40.8333 -72.6167 246° West  Level FlightAware Approximate
12:51PM 40.8437 -72.6318 246° West  Level Estimated